Location: Dumbr?vi?a
(45.8833°N, 22.7000°E)
Time: 06:18:56
(UTC+00:00)

USA 306 - Pass Details

Date: 03 March 2021
Orbit: 564 x 577 km, 54.0° (Epoch: 10 April)

Event Time Altitude Azimuth Distance (km) Brightness Sun altitude
Rises 18:22:22 0° 294° (WNW) 2,783 7.8 -22.2°
Reaches altitude 10° 18:24:53 10° 306° (NW) 1,882 6.5 -22.6°
Maximum altitude 18:28:37 28° 7° (N) 1,084 4.3 -23.2°
Enters shadow 18:28:59 28° 16° (NNE) 1,094 4.3 -23.3°
